| time (UTC) | temp F | wind direction | speed MPH | gust MPH | rain 1hr in | rain 24hr in | rain mn in | humidity % | barometer mb |
| 20260906161508 | 72 | 360 | 10.0 | 14.0 | 0.00 | 0.00 | 0.00 | 49 | 1014.1 |
| 20260906160012 | 71 | 360 | 7.0 | 11.0 | 0.00 | 0.00 | 0.00 | 50 | 1014.3 |
| 20260906154508 | 71 | 124 | 7.0 | 13.0 | 0.00 | 0.00 | 0.00 | 49 | 1014.4 |
| 20260906153006 | 70 | 360 | 8.0 | 11.0 | 0.00 | 0.00 | 0.00 | 50 | 1014.2 |
| 20260906151516 | 70 | 112 | 5.0 | 10.0 | 0.00 | 0.00 | 0.00 | 51 | 1014.2 |
| 20260906150007 | 70 | 111 | 7.0 | 12.0 | 0.00 | 0.00 | 0.00 | 52 | 1014.2 |
| 20260906144504 | 69 | 360 | 7.0 | 11.0 | 0.00 | 0.00 | 0.00 | 53 | 1014.2 |
| 20260906143001 | 69 | 360 | 8.0 | 13.0 | 0.00 | 0.00 | 0.00 | 54 | 1013.9 |
| 20260906141500 | 69 | 121 | 8.0 | 13.0 | 0.00 | 0.00 | 0.00 | 55 | 1013.9 |
| 20260906140100 | 69 | 360 | 8.0 | 11.0 | 0.00 | 0.00 | 0.00 | 56 | 1014.0 |
| 20260906134604 | 69 | 122 | 6.0 | 11.0 | 0.00 | 0.00 | 0.00 | 56 | 1014.0 |
| 20260906133103 | 68 | 360 | 8.0 | 13.0 | 0.00 | 0.00 | 0.00 | 57 | 1013.7 |
| 20260906131555 | 68 | 360 | 8.0 | 13.0 | 0.00 | 0.00 | 0.00 | 57 | 1013.4 |
| 20260906130105 | 68 | 124 | 7.0 | 11.0 | 0.00 | 0.00 | 0.00 | 57 | 1013.4 |
| 20260906124552 | 68 | 360 | 6.0 | 9.0 | 0.00 | 0.00 | 0.00 | 57 | 1013.2 |
| 20260906123052 | 67 | 105 | 5.0 | 9.0 | 0.00 | 0.00 | 0.00 | 57 | 1013.0 |
| 20260906121556 | 67 | 360 | 7.0 | 10.0 | 0.00 | 0.00 | 0.00 | 58 | 1012.8 |
| 20260906120047 | 67 | 360 | 4.0 | 7.0 | 0.00 | 0.00 | 0.00 | 57 | 1012.7 |
| 20260906114556 | 67 | 104 | 5.0 | 7.0 | 0.00 | 0.00 | 0.00 | 57 | 1012.5 |
| 20260906113054 | 67 | 100 | 2.0 | 5.0 | 0.00 | 0.00 | 0.00 | 57 | 1012.4 |
| 20260906111544 | 68 | 92 | 3.0 | 6.0 | 0.00 | 0.00 | 0.00 | 57 | 1012.4 |
| 20260906110045 | 68 | 105 | 3.0 | 5.0 | 0.00 | 0.00 | 0.00 | 57 | 1012.3 |
| 20260906104542 | 69 | 118 | 1.0 | 4.0 | 0.00 | 0.00 | 0.00 | 57 | 1012.3 |
| 20260906103042 | 69 | 118 | 1.0 | 3.0 | 0.00 | 0.00 | 0.00 | 57 | 1012.2 |
| 20260906101541 | 69 | 118 | 0.0 | 6.0 | 0.00 | 0.00 | 0.00 | 57 | 1012.4 |
| 20260906100040 | 69 | 133 | 3.0 | 7.0 | 0.00 | 0.00 | 0.00 | 57 | 1012.4 |
| 20260906094539 | 69 | 134 | 3.0 | 6.0 | 0.00 | 0.00 | 0.00 | 57 | 1012.2 |
| 20260906093038 | 68 | 118 | 1.0 | 4.0 | 0.00 | 0.00 | 0.00 | 56 | 1011.9 |
| 20260906091536 | 67 | 119 | 1.0 | 3.0 | 0.00 | 0.00 | 0.00 | 55 | 1011.4 |
| 20260906090034 | 68 | 100 | 4.0 | 6.0 | 0.00 | 0.00 | 0.00 | 55 | 1011.4 |
| 20260906084533 | 68 | 71 | 5.0 | 7.0 | 0.00 | 0.00 | 0.00 | 54 | 1011.3 |
| 20260906083030 | 69 | 360 | 4.0 | 6.0 | 0.00 | 0.00 | 0.00 | 54 | 1011.2 |
| 20260906081541 | 69 | 98 | 4.0 | 8.0 | 0.00 | 0.00 | 0.00 | 54 | 1011.2 |
| 20260906080031 | 69 | 101 | 6.0 | 9.0 | 0.00 | 0.00 | 0.00 | 53 | 1011.1 |
| 20260906074527 | 69 | 84 | 6.0 | 9.0 | 0.00 | 0.00 | 0.00 | 52 | 1011.3 |
| 20260906073022 | 70 | 360 | 5.0 | 8.0 | 0.00 | 0.00 | 0.00 | 51 | 1011.3 |
| 20260906071520 | 70 | 98 | 4.0 | 7.0 | 0.00 | 0.00 | 0.00 | 50 | 1011.5 |
| 20260906070019 | 70 | 80 | 6.0 | 8.0 | 0.00 | 0.00 | 0.00 | 50 | 1011.6 |
| 20260906064518 | 71 | 79 | 6.0 | 9.0 | 0.00 | 0.00 | 0.00 | 50 | 1011.7 |
| 20260906063017 | 71 | 360 | 6.0 | 10.0 | 0.00 | 0.00 | 0.00 | 50 | 1011.7 |
| 20260906061514 | 71 | 360 | 7.0 | 10.0 | 0.00 | 0.00 | 0.00 | 49 | 1011.6 |
| 20260906060021 | 71 | 360 | 6.0 | 9.0 | 0.00 | 0.00 | 0.00 | 49 | 1011.6 |
| 20260906054511 | 71 | 70 | 5.0 | 7.0 | 0.00 | 0.00 | 0.00 | 48 | 1011.8 |
| 20260906053019 | 71 | 80 | 5.0 | 7.0 | 0.00 | 0.00 | 0.00 | 48 | 1011.5 |
| 20260906051507 | 71 | 105 | 1.0 | 4.0 | 0.00 | 0.00 | 0.00 | 46 | 1011.4 |
| 20260906050016 | 72 | 103 | 4.0 | 6.0 | 0.00 | 0.00 | 0.00 | 46 | 1011.4 |
| 20260906044503 | 72 | 80 | 5.0 | 7.0 | 0.00 | 0.00 | 0.00 | 46 | 1011.5 |
| 20260906043003 | 73 | 84 | 4.0 | 7.0 | 0.00 | 0.00 | 0.00 | 46 | 1011.4 |
| 20260906041502 | 73 | 360 | 5.0 | 7.0 | 0.00 | 0.00 | 0.00 | 46 | 1011.4 |
| 20260906040002 | 73 | 74 | 4.0 | 7.0 | 0.00 | 0.00 | 0.00 | 46 | 1011.3 |
| 20260906034502 | 73 | 360 | 4.0 | 8.0 | 0.00 | 0.00 | 0.00 | 46 | 1011.2 |
| 20260906033100 | 74 | 360 | 5.0 | 9.0 | 0.00 | 0.00 | 0.00 | 46 | 1011.3 |
| 20260906031604 | 74 | 65 | 4.0 | 8.0 | 0.00 | 0.00 | 0.00 | 46 | 1011.3 |
| 20260906030058 | 74 | 88 | 4.0 | 7.0 | 0.00 | 0.00 | 0.00 | 46 | 1011.1 |
| 20260906024555 | 74 | 360 | 4.0 | 7.0 | 0.00 | 0.00 | 0.00 | 46 | 1010.9 |
| 20260906023055 | 74 | 84 | 4.0 | 7.0 | 0.00 | 0.00 | 0.00 | 47 | 1010.7 |
| 20260906021554 | 74 | 89 | 5.0 | 8.0 | 0.00 | 0.00 | 0.00 | 47 | 1010.5 |
| 20260906020101 | 75 | 83 | 5.0 | 7.0 | 0.00 | 0.00 | 0.00 | 47 | 1010.4 |
| 20260906014553 | 75 | 96 | 3.0 | 7.0 | 0.00 | 0.00 | 0.00 | 47 | 1010.2 |
| 20260906013052 | 75 | 95 | 2.0 | 7.0 | 0.00 | 0.00 | 0.00 | 48 | 1010.0 |
| 20260906011552 | 76 | 360 | 4.0 | 7.0 | 0.00 | 0.00 | 0.00 | 50 | 1010.0 |
| 20260906010051 | 76 | 360 | 5.0 | 7.0 | 0.00 | 0.00 | 0.00 | 51 | 1010.0 |
| 20260906004551 | 77 | 80 | 4.0 | 8.0 | 0.00 | 0.00 | 0.00 | 52 | 1009.7 |
| 20260906003050 | 78 | 360 | 6.0 | 10.0 | 0.00 | 0.00 | 0.00 | 52 | 1009.6 |
| 20260906001549 | 79 | 74 | 5.0 | 9.0 | 0.00 | 0.00 | 0.00 | 52 | 1009.7 |
| 20260906000049 | 80 | 360 | 6.0 | 10.0 | 0.00 | 0.00 | 0.00 | 53 | 1009.6 |
| 20260905234548 | 80 | 76 | 5.0 | 10.0 | 0.00 | 0.00 | 0.00 | 53 | 1009.8 |
| 20260905233049 | 81 | 87 | 6.0 | 9.0 | 0.00 | 0.00 | 0.00 | 53 | 1009.6 |
| 20260905231548 | 82 | 360 | 6.0 | 10.0 | 0.00 | 0.00 | 0.00 | 53 | 1009.6 |
| 20260905230052 | 83 | 87 | 6.0 | 9.0 | 0.00 | 0.00 | 0.00 | 52 | 1009.6 |
| 20260905224601 | 84 | 360 | 7.0 | 11.0 | 0.00 | 0.00 | 0.00 | 51 | 1009.2 |
| 20260905223047 | 85 | 62 | 8.0 | 14.0 | 0.00 | 0.00 | 0.00 | 50 | 1008.9 |
| 20260905221556 | 85 | 360 | 9.0 | 14.0 | 0.00 | 0.00 | 0.00 | 50 | 1008.7 |
| 20260905220050 | 85 | 360 | 10.0 | 14.0 | 0.00 | 0.00 | 0.00 | 49 | 1008.7 |
| 20260905214545 | 86 | 84 | 9.0 | 15.0 | 0.00 | 0.00 | 0.00 | 49 | 1008.6 |
| 20260905213043 | 86 | 62 | 7.0 | 14.0 | 0.00 | 0.00 | 0.00 | 48 | 1008.5 |
| 20260905211544 | 87 | 62 | 8.0 | 12.0 | 0.00 | 0.00 | 0.00 | 47 | 1008.7 |
| 20260905210043 | 87 | 73 | 8.0 | 15.0 | 0.00 | 0.00 | 0.00 | 47 | 1009.0 |
| 20260905204542 | 88 | 84 | 5.0 | 8.0 | 0.00 | 0.00 | 0.00 | 46 | 1009.2 |
| 20260905203056 | 88 | 145 | 3.0 | 9.0 | 0.00 | 0.00 | 0.00 | 46 | 1009.2 |
| 20260905201544 | 88 | 113 | 1.0 | 8.0 | 0.00 | 0.00 | 0.00 | 47 | 1009.5 |
| 20260905200051 | 87 | 85 | 5.0 | 9.0 | 0.00 | 0.00 | 0.00 | 48 | 1009.8 |
| 20260905194539 | 87 | 112 | 5.0 | 10.0 | 0.00 | 0.00 | 0.00 | 48 | 1009.8 |
| 20260905193038 | 88 | 298 | 4.0 | 8.0 | 0.00 | 0.00 | 0.00 | 48 | 1010.1 |
| 20260905191538 | 90 | 100 | 3.0 | 7.0 | 0.00 | 0.00 | 0.00 | 45 | 1010.0 |
| 20260905190034 | 88 | 140 | 3.0 | 6.0 | 0.00 | 0.00 | 0.00 | 46 | 1010.3 |
| 20260905184534 | 88 | 98 | 3.0 | 10.0 | 0.00 | 0.00 | 0.00 | 46 | 1010.5 |
| 20260905183032 | 87 | 277 | 1.0 | 6.0 | 0.00 | 0.00 | 0.00 | 47 | 1010.5 |
| 20260905181529 | 87 | 80 | 2.0 | 7.0 | 0.00 | 0.00 | 0.00 | 47 | 1010.7 |
| 20260905180028 | 87 | 94 | 1.0 | 6.0 | 0.00 | 0.00 | 0.00 | 46 | 1010.7 |
| 20260905174534 | 86 | 103 | 2.0 | 6.0 | 0.00 | 0.00 | 0.00 | 47 | 1010.6 |
| 20260905173027 | 85 | 95 | 4.0 | 11.0 | 0.00 | 0.00 | 0.00 | 48 | 1010.6 |
| 20260905171535 | 85 | 96 | 5.0 | 11.0 | 0.00 | 0.00 | 0.00 | 47 | 1010.4 |
| 20260905170019 | 85 | 111 | 3.0 | 7.0 | 0.00 | 0.00 | 0.00 | 47 | 1010.5 |
| 20260905164514 | 85 | 90 | 4.0 | 9.0 | 0.00 | 0.00 | 0.00 | 47 | 1010.5 |
| 20260905163010 | 84 | 91 | 2.0 | 9.0 | 0.00 | 0.00 | 0.00 | 47 | 1010.7 |